Weather History for KORH - November, 2013

Change the Weather History Date:

Saturday, November 16, 2013

  Actual Average Record
Temperature  
Mean Temperature 49 °F 40 °F  
Max Temperature 56 °F 48 °F 69 °F (1928)
Min Temperature 41 °F 33 °F 5 °F (1933)
Degree Days  
Heating Degree Days 16 25  
Month to date heating degree days 375 357  
Since 1 July heating degree days 973 1018  
Cooling Degree Days 0 0  
Month to date cooling degree days 0 0  
Year to date cooling degree days 572 471  
Moisture  
Dew Point 25 °F    
Average Humidity 50    
Maximum Humidity 73    
Minimum Humidity 26    
Precipitation  
Precipitation 0.00 in 0.14 in 2.42 in (1983)
Month to date precipitation 0.37 2.25  
Year to date precipitation 38.05 42.22  
Snow  
Snow 0.00 in 0.10 in 3.40 in (1985)
Month to date snowfall 0.5 0.8  
Since 1 July snowfall 0.5 1.0  
Since 1 September snowfall 0.5 1.0  
Snow Depth -    
Sea Level Pressure  
Sea Level Pressure 30.28 in    
Wind  
Wind Speed 7 mph (WSW)    
Max Wind Speed 16 mph    
Max Gust Speed 20 mph    
Visibility 10 miles    
Events      
T = Trace of Precipitation, MM = Missing Value Source: NWS Daily Summary

Daily Weather History Graph

Daily Weather History Graph

Search for Another Location

Airport or City:

Trip Planner

Search our weather history database for the weather conditions in past years. The results will help you decide how hot, cold, wet, or windy it might be!

Date:

Astronomy

Nov. 16, 2013 Rise Set
Actual Time 6:39 AM EST 4:24 PM EST
Civil Twilight 6:09 AM EST 4:54 PM EST
Nautical Twilight 5:35 AM EST 5:28 PM EST
Astronomical Twilight 5:02 AM EST 6:02 PM EST
Moon 3:58 PM EST (11/16) 5:31 AM EST (11/16)
Length of Visible Light 10h 45m
Length of Day
9h 45m
Waxing Gibbous, 99% of the Moon is Illuminated
Nov 16
Waxing Gibbous
Nov 17
Full
Nov 25
Last Quarter
Dec 2
New
Dec 9
First Quarter

Hourly Weather History & Observations

Time (EST) Temp. Windchill Dew Point Humidity Pressure Visibility Wind Dir Wind Speed Gust Speed Precip Events Conditions
12:54 AM 43.0 °F 37.2 °F 21.9 °F 43% 30.19 in 10.0 mi West 10.4 mph - N/A   Clear
1:54 AM 42.1 °F 36.6 °F 21.9 °F 45% 30.20 in 10.0 mi WSW 9.2 mph - N/A   Clear
2:54 AM 42.1 °F 35.7 °F 21.0 °F 43% 30.21 in 10.0 mi WSW 11.5 mph - N/A   Clear
3:54 AM 44.1 °F 38.1 °F 19.9 °F 38% 30.23 in 10.0 mi West 11.5 mph - N/A   Scattered Clouds
4:54 AM 44.1 °F 38.6 °F 19.0 °F 37% 30.24 in 10.0 mi West 10.4 mph - N/A   Overcast
5:54 AM 43.0 °F 37.7 °F 19.9 °F 40% 30.25 in 10.0 mi West 9.2 mph - N/A   Overcast
6:54 AM 45.0 °F 39.7 °F 18.0 °F 34% 30.26 in 10.0 mi West 10.4 mph - N/A   Mostly Cloudy
7:54 AM 44.1 °F 39.5 °F 19.0 °F 37% 30.29 in 10.0 mi WSW 8.1 mph - N/A   Overcast
8:54 AM 46.0 °F - 19.9 °F 35% 30.30 in 10.0 mi Calm Calm - N/A   Overcast
9:54 AM 48.9 °F - 21.0 °F 33% 30.30 in 10.0 mi West 8.1 mph - N/A   Clear
10:54 AM 53.1 °F - 19.9 °F 27% 30.30 in 10.0 mi WNW 4.6 mph - N/A   Clear
11:54 AM 54.0 °F - 23.0 °F 30% 30.29 in 10.0 mi West 5.8 mph - N/A   Clear
12:54 PM 55.0 °F - 24.1 °F 30% 30.28 in 10.0 mi WSW 5.8 mph - N/A   Clear
1:54 PM 55.0 °F - 25.0 °F 31% 30.28 in 10.0 mi SW 5.8 mph - N/A   Clear
2:54 PM 55.0 °F - 26.1 °F 33% 30.29 in 10.0 mi Variable 4.6 mph - N/A   Clear
3:54 PM 54.0 °F - 28.0 °F 37% 30.30 in 10.0 mi SW 3.5 mph - N/A   Clear
4:54 PM 51.1 °F - 28.9 °F 43% 30.31 in 10.0 mi SW 4.6 mph - N/A   Clear
5:54 PM 48.9 °F - 30.0 °F 48% 30.32 in 10.0 mi SSW 3.5 mph - N/A   Clear
6:54 PM 48.0 °F - 30.0 °F 50% 30.32 in 10.0 mi SSW 4.6 mph - N/A   Clear
7:54 PM 46.9 °F - 30.9 °F 54% 30.32 in 10.0 mi SW 4.6 mph - N/A   Clear
8:54 PM 45.0 °F 41.2 °F 30.9 °F 58% 30.33 in 10.0 mi SSW 6.9 mph - N/A   Clear
9:54 PM 43.0 °F 38.2 °F 32.0 °F 65% 30.32 in 10.0 mi WSW 8.1 mph - N/A   Clear
10:54 PM 41.0 °F 35.8 °F 34.0 °F 76% 30.32 in 10.0 mi West 8.1 mph - N/A   Clear
11:54 PM 44.1 °F 40.1 °F 39.0 °F 82% 30.31 in 10.0 mi West 6.9 mph - N/A   Clear